SL-3 R/B (10114 NORAD) Tracking and Keplerian Element Data

This shows tracking and keplerian element data for the satellite.

Feedback or suggestion? Click here.




ElementValue
Catalog10114
NameSL-3 R/B
Epoch Orbit54789
Epoch Day13.14501112
Epoch Year2024
RAAN156.9084
Inclination97.4853
Eccentricity0.0010836
Argument of Perigee204.1607
Mean Anonmoly155.9124
Mean Motion15.25075217
Decay Rate8.723E-05
L11 10114U 77057B 24013.14501112 .00008723 00000+0 35105-3 0 9994
L22 10114 97.4853 156.9084 0010836 204.1607 155.9124 15.25075217547891



Live tracking and technical data element details for SL-3 R/B (NORAD 10114). SL-3 R/B can be tracked NOW for your location showing map with azimuth and elevation plus other details from your city location.







IsCatalogInMostPopularTable: catalog: 10114, numindb: 278
Update: records affected: 1



GetName: 10114 SL-3 R/B

Hit Count: updated at: Fri, 19 Apr 2024 12:35:24 GMT